Weather History for Honolulu, HI

Change the Weather History Date:

Tuesday, March 26, 2013

  Actual Average Record
Temperature  
Mean Temperature 74 °F 75 °F  
Max Temperature 81 °F 82 °F 87 °F (1981)
Min Temperature 67 °F 69 °F 57 °F (1955)
Degree Days  
Heating Degree Days 0 0  
Month to date heating degree days 0 0  
Since 1 July heating degree days 0 0  
Cooling Degree Days 9 10  
Month to date cooling degree days 213 243  
Year to date cooling degree days 711 725  
Growing Degree Days 24 (Base 50)    
Moisture  
Dew Point 66 °F    
Average Humidity 78    
Maximum Humidity 93    
Minimum Humidity 62    
Precipitation  
Precipitation T in 0.06 in 3.65 in (1951)
Month to date precipitation 2.55 1.74  
Year to date precipitation 5.62 6.04  
Snow  
Snow 0.00 in - - ()
Month to date snowfall 0.0  
Since 1 July snowfall 0.0  
Snow Depth 0.00 in    
Sea Level Pressure  
Sea Level Pressure 30.01 in    
Wind  
Wind Speed 4 mph (NNW)    
Max Wind Speed 12 mph    
Max Gust Speed 15 mph    
Visibility 10 miles    
Events Rain    
T = Trace of Precipitation, MM = Missing Value Source: NWS Daily Summary

Daily Weather History Graph

Daily Weather History Graph

Search for Another Location

Airport:

Trip Planner

Search our weather history database for the weather conditions in past years. The results will help you decide how hot, cold, wet, or windy it might be!

Date:

Astronomy

Mar. 26, 2013 Rise Set
Actual Time 6:29 AM HST 6:44 PM HST
Civil Twilight 6:07 AM HST 7:07 PM HST
Nautical Twilight 5:41 AM HST 7:32 PM HST
Astronomical Twilight 5:15 AM HST 7:59 PM HST
Moon 6:30 PM HST (3/26) 5:52 AM HST (3/26)
Length of Visible Light 12h 59m
Length of Day
12h 15m
Full, 100% of the Moon is Illuminated
Mar 26
Full
Mar 26
Full
Apr 2
Last Quarter
Apr 9
New
Apr 18
First Quarter

Hourly Weather History & Observations

Time (HST) Temp. Heat Index Dew Point Humidity Pressure Visibility Wind Dir Wind Speed Gust Speed Precip Events Conditions
12:53 AM 71.1 °F - 66.9 °F 87% 30.00 in 10.0 mi Calm Calm - N/A   Mostly Cloudy
1:53 AM 70.0 °F - 66.9 °F 90% 29.98 in 10.0 mi NNW 3.5 mph - N/A   Scattered Clouds
2:53 AM 69.1 °F - 66.9 °F 93% 29.97 in 10.0 mi Calm Calm - N/A   Scattered Clouds
3:53 AM 68.0 °F - 66.0 °F 93% 29.96 in 10.0 mi NNW 3.5 mph - N/A   Scattered Clouds
4:53 AM 68.0 °F - 66.0 °F 93% 29.97 in 10.0 mi Calm Calm - N/A   Scattered Clouds
5:53 AM 68.0 °F - 64.9 °F 90% 29.99 in 10.0 mi NNW 4.6 mph - N/A   Scattered Clouds
6:53 AM 68.0 °F - 64.9 °F 90% 30.01 in 10.0 mi North 4.6 mph - N/A   Scattered Clouds
7:53 AM 71.1 °F - 66.9 °F 87% 30.03 in 10.0 mi NW 4.6 mph - N/A   Scattered Clouds
8:53 AM 75.9 °F - 66.0 °F 71% 30.05 in 10.0 mi Calm Calm - N/A   Scattered Clouds
9:53 AM 79.0 °F - 64.9 °F 62% 30.05 in 10.0 mi NNE 4.6 mph - N/A   Scattered Clouds
10:53 AM 77.0 °F - 66.0 °F 69% 30.05 in 10.0 mi South 6.9 mph - N/A   Scattered Clouds
11:53 AM 79.0 °F - 66.9 °F 66% 30.03 in 10.0 mi South 6.9 mph - N/A   Scattered Clouds
12:53 PM 78.1 °F - 66.0 °F 66% 30.00 in 10.0 mi South 5.8 mph - N/A   Scattered Clouds
1:53 PM 80.1 °F 82.1 °F 66.0 °F 62% 29.99 in 10.0 mi WSW 9.2 mph - N/A   Scattered Clouds
2:53 PM 78.1 °F - 66.0 °F 66% 29.98 in 10.0 mi SW 9.2 mph - N/A   Scattered Clouds
3:53 PM 75.0 °F - 69.1 °F 82% 29.97 in 9.0 mi North 3.5 mph - 0.00 in Rain Light Rain
4:53 PM 75.0 °F - 69.1 °F 82% 29.98 in 10.0 mi WSW 4.6 mph - 0.02 in   Mostly Cloudy
5:53 PM 75.9 °F - 66.0 °F 71% 29.99 in 10.0 mi NNE 4.6 mph - N/A   Mostly Cloudy
6:53 PM 73.9 °F - 66.0 °F 76% 30.00 in 10.0 mi NNE 8.1 mph - N/A   Scattered Clouds
7:53 PM 73.9 °F - 64.9 °F 73% 30.02 in 10.0 mi NNE 4.6 mph - N/A   Partly Cloudy
8:53 PM 73.0 °F - 66.0 °F 79% 30.04 in 10.0 mi NNE 4.6 mph - N/A   Partly Cloudy
9:53 PM 73.0 °F - 66.0 °F 79% 30.04 in 10.0 mi NW 6.9 mph - N/A   Scattered Clouds
10:53 PM 72.0 °F - 66.0 °F 81% 30.04 in 10.0 mi Calm Calm - N/A   Scattered Clouds
11:53 PM 71.1 °F - 66.0 °F 84% 30.03 in 10.0 mi NW 5.8 mph - N/A   Scattered Clouds